Location: Newark
(21.1200°N, 73.4000°E)
Time: 17:14:28
(UTC+00:00)

Vanguard 3 - Visible Passes

Search period start: 29 January 2020 00:00
Search period end: 08 February 2020 00:00
Orbit: 507 x 3264 km, 33.4° (Epoch: 29 January)

Date Brightness Start Highest point End Pass type
(mag) Time Alt. Az. Time Alt. Az. Time Alt. Az.
29 Jan 10.3 13:24:04 10° W 13:43:39 55° N 13:57:18 17° ENE visible
29 Jan 9.5 15:43:45 10° WNW 16:01:52 63° N 16:01:52 63° N visible
29 Jan 10.9 18:02:45 10° WNW 18:06:27 19° WNW 18:06:27 19° WNW visible
30 Jan 9.8 14:25:25 10° WNW 14:45:05 57° N 14:52:09 38° ENE visible
30 Jan 10.0 16:44:34 10° WNW 16:56:44 49° WNW 16:56:44 49° WNW visible
31 Jan 10.3 13:07:22 10° WNW 13:26:47 56° N 13:42:29 13° ENE visible
31 Jan 9.4 15:26:24 10° WNW 15:45:54 69° NNE 15:47:03 68° NE visible
31 Jan 10.7 17:45:23 10° WNW 17:51:38 26° WNW 17:51:38 26° WNW visible
01 Feb 9.9 14:08:22 10° WNW 14:28:18 60° NNE 14:37:26 32° ENE visible
01 Feb 9.7 16:27:05 10° WNW 16:42:01 62° WNW 16:42:01 62° WNW visible
02 Feb 10.3 12:50:43 10° WNW 13:09:54 56° N 13:27:12 10° E visible
02 Feb 9.4 15:09:05 10° WNW 15:29:06 75° NNE 15:32:27 62° E visible
02 Feb 10.5 17:28:03 10° WNW 17:37:03 33° W 17:37:03 33° W visible
03 Feb 10.0 13:51:23 10° WNW 14:11:25 63° NNE 14:22:57 25° E visible
03 Feb 9.5 16:09:39 10° WNW 16:27:34 75° WSW 16:27:34 75° WSW visible
03 Feb 11.2 18:30:28 10° W 18:32:10 13° W 18:32:10 13° W visible
04 Feb 9.6 14:51:48 10° WNW 15:12:09 81° NNE 15:18:09 50° ESE visible
04 Feb 10.3 17:10:45 10° WNW 17:22:45 39° W 17:22:45 39° W visible
05 Feb 10.1 13:34:26 10° WNW 13:54:25 67° NNE 14:08:49 17° E visible
05 Feb 9.5 15:52:17 10° WNW 16:11:47 72° SW 16:13:26 68° S visible
05 Feb 11.1 18:13:46 10° W 18:18:02 17° W 18:18:02 17° W visible
06 Feb 9.8 14:34:36 10° WNW 14:55:02 87° NNE 15:04:11 36° ESE visible
06 Feb 10.2 16:53:33 10° WNW 17:08:49 42° SW 17:08:49 42° SW visible
07 Feb 10.1 13:17:34 10° WNW 13:37:19 71° NNE 13:54:48 10° ESE visible
07 Feb 9.8 15:35:00 10° WNW 15:54:36 66° SW 15:59:42 49° SSE visible
07 Feb 11.0 17:57:16 10° W 18:04:20 19° WSW 18:04:20 19° WSW visible
